Location: ??????
(56.0120°N, 39.1740°E)
Time: 22:38:14
(UTC+00:00)

IKONOS-2 - Pass Details

Date: 14 April 2026
Orbit: 572 x 579 km, 98.1° (Epoch: 13 May)

Event Time Altitude Azimuth Distance (km) Brightness Sun altitude
Rises 19:37:18 0° 18° (NNE) 2,797 8.6 -20.7°
Reaches altitude 10° 19:39:29 10° 22° (NNE) 1,894 7.6 -20.9°
Maximum altitude 19:43:32 59° 102° (ESE) 672 4.5 -21.1°
Enters shadow 19:43:37 58° 108° (ESE) 673 4.4 -21.2°
